<?xml version="1.0" encoding="UTF-8" standalone="no" ?>
<gpx xmlns="http://www.topografix.com/GPX/1/1" xmlns:xsi="http://www.w3.org/2001/XMLSchema-instance" xsi:schemaLocation="http://www.topografix.com/GPX/1/1 http://www.topografix.com/GPX/1/1/gpx.xsd" version="1.1" creator="VisuGPX - https://www.visugpx.com">
  <metadata>
    <name>Roquecor - PR4</name>
  </metadata>
  <trk>
    <name><![CDATA[Roquecor - PR4_1]]></name>
    <trkseg>
      <trkpt lat="44.32326" lon="0.94507">
        <ele>265</ele>
        <time>2020-09-01T08:19:44 02:00</time>
      </trkpt>
      <trkpt lat="44.32306" lon="0.94525">
        <ele>264</ele>
        <time>2020-09-01T08:19:44 02:00</time>
      </trkpt>
      <trkpt lat="44.32297" lon="0.94554">
        <ele>261</ele>
        <time>2020-09-01T08:19:44 02:00</time>
      </trkpt>
      <trkpt lat="44.32274" lon="0.94563">
        <ele>259</ele>
        <time>2020-09-01T08:19:44 02:00</time>
      </trkpt>
      <trkpt lat="44.32259" lon="0.94587">
        <ele>259</ele>
        <time>2020-09-01T08:21:52 02:00</time>
      </trkpt>
      <trkpt lat="44.3224" lon="0.94606">
        <ele>252</ele>
        <time>2020-09-01T08:21:52 02:00</time>
      </trkpt>
      <trkpt lat="44.32217" lon="0.94615">
        <ele>250</ele>
        <time>2020-09-01T08:21:52 02:00</time>
      </trkpt>
      <trkpt lat="44.32193" lon="0.9462">
        <ele>245</ele>
        <time>2020-09-01T08:21:52 02:00</time>
      </trkpt>
      <trkpt lat="44.32171" lon="0.9461">
        <ele>236</ele>
        <time>2020-09-01T08:24:00 02:00</time>
      </trkpt>
      <trkpt lat="44.32162" lon="0.94582">
        <ele>237</ele>
        <time>2020-09-01T08:24:00 02:00</time>
      </trkpt>
      <trkpt lat="44.32141" lon="0.94566">
        <ele>243</ele>
        <time>2020-09-01T08:26:08 02:00</time>
      </trkpt>
      <trkpt lat="44.32156" lon="0.94591">
        <ele>238</ele>
        <time>2020-09-01T08:28:16 02:00</time>
      </trkpt>
      <trkpt lat="44.32133" lon="0.94584">
        <ele>230</ele>
        <time>2020-09-01T08:28:16 02:00</time>
      </trkpt>
      <trkpt lat="44.32115" lon="0.94563">
        <ele>230</ele>
        <time>2020-09-01T08:30:24 02:00</time>
      </trkpt>
      <trkpt lat="44.32093" lon="0.94555">
        <ele>212</ele>
        <time>2020-09-01T08:30:24 02:00</time>
      </trkpt>
      <trkpt lat="44.32105" lon="0.94582">
        <ele>215</ele>
        <time>2020-09-01T08:32:32 02:00</time>
      </trkpt>
      <trkpt lat="44.32099" lon="0.94551">
        <ele>207</ele>
        <time>2020-09-01T08:34:40 02:00</time>
      </trkpt>
      <trkpt lat="44.32078" lon="0.94565">
        <ele>208</ele>
        <time>2020-09-01T08:34:40 02:00</time>
      </trkpt>
      <trkpt lat="44.32073" lon="0.94596">
        <ele>204</ele>
        <time>2020-09-01T08:34:40 02:00</time>
      </trkpt>
      <trkpt lat="44.32076" lon="0.94627">
        <ele>202</ele>
        <time>2020-09-01T08:34:40 02:00</time>
      </trkpt>
      <trkpt lat="44.32083" lon="0.94657">
        <ele>198</ele>
        <time>2020-09-01T08:36:48 02:00</time>
      </trkpt>
      <trkpt lat="44.32097" lon="0.94682">
        <ele>192</ele>
        <time>2020-09-01T08:36:48 02:00</time>
      </trkpt>
      <trkpt lat="44.32103" lon="0.94714">
        <ele>187</ele>
        <time>2020-09-01T08:36:48 02:00</time>
      </trkpt>
      <trkpt lat="44.32109" lon="0.94745">
        <ele>183</ele>
        <time>2020-09-01T08:36:48 02:00</time>
      </trkpt>
      <trkpt lat="44.32107" lon="0.94777">
        <ele>179</ele>
        <time>2020-09-01T08:36:48 02:00</time>
      </trkpt>
      <trkpt lat="44.32108" lon="0.94809">
        <ele>174</ele>
        <time>2020-09-01T08:38:56 02:00</time>
      </trkpt>
      <trkpt lat="44.32107" lon="0.94842">
        <ele>165</ele>
        <time>2020-09-01T08:38:56 02:00</time>
      </trkpt>
      <trkpt lat="44.32104" lon="0.94875">
        <ele>163</ele>
        <time>2020-09-01T08:38:56 02:00</time>
      </trkpt>
      <trkpt lat="44.32101" lon="0.94908">
        <ele>163</ele>
        <time>2020-09-01T08:38:56 02:00</time>
      </trkpt>
      <trkpt lat="44.32095" lon="0.94939">
        <ele>162</ele>
        <time>2020-09-01T08:38:56 02:00</time>
      </trkpt>
      <trkpt lat="44.32086" lon="0.9497">
        <ele>161</ele>
        <time>2020-09-01T08:38:56 02:00</time>
      </trkpt>
      <trkpt lat="44.32078" lon="0.94999">
        <ele>161</ele>
        <time>2020-09-01T08:38:56 02:00</time>
      </trkpt>
      <trkpt lat="44.32071" lon="0.95029">
        <ele>166</ele>
        <time>2020-09-01T08:38:56 02:00</time>
      </trkpt>
      <trkpt lat="44.32058" lon="0.95055">
        <ele>169</ele>
        <time>2020-09-01T08:38:56 02:00</time>
      </trkpt>
      <trkpt lat="44.3205" lon="0.95086">
        <ele>166</ele>
        <time>2020-09-01T08:41:04 02:00</time>
      </trkpt>
      <trkpt lat="44.32042" lon="0.95116">
        <ele>165</ele>
        <time>2020-09-01T08:41:04 02:00</time>
      </trkpt>
      <trkpt lat="44.32033" lon="0.95146">
        <ele>167</ele>
        <time>2020-09-01T08:41:04 02:00</time>
      </trkpt>
      <trkpt lat="44.32011" lon="0.95155">
        <ele>166</ele>
        <time>2020-09-01T08:41:04 02:00</time>
      </trkpt>
      <trkpt lat="44.31987" lon="0.95149">
        <ele>166</ele>
        <time>2020-09-01T08:41:04 02:00</time>
      </trkpt>
      <trkpt lat="44.31964" lon="0.95145">
        <ele>168</ele>
        <time>2020-09-01T08:43:12 02:00</time>
      </trkpt>
      <trkpt lat="44.31941" lon="0.95148">
        <ele>169</ele>
        <time>2020-09-01T08:43:12 02:00</time>
      </trkpt>
      <trkpt lat="44.31919" lon="0.95154">
        <ele>167</ele>
        <time>2020-09-01T08:43:12 02:00</time>
      </trkpt>
      <trkpt lat="44.31896" lon="0.95157">
        <ele>166</ele>
        <time>2020-09-01T08:43:12 02:00</time>
      </trkpt>
      <trkpt lat="44.31874" lon="0.95151">
        <ele>169</ele>
        <time>2020-09-01T08:43:12 02:00</time>
      </trkpt>
      <trkpt lat="44.31854" lon="0.95135">
        <ele>167</ele>
        <time>2020-09-01T08:43:12 02:00</time>
      </trkpt>
      <trkpt lat="44.31837" lon="0.95112">
        <ele>164</ele>
        <time>2020-09-01T08:43:12 02:00</time>
      </trkpt>
      <trkpt lat="44.3182" lon="0.95091">
        <ele>163</ele>
        <time>2020-09-01T08:43:12 02:00</time>
      </trkpt>
      <trkpt lat="44.31801" lon="0.95072">
        <ele>161</ele>
        <time>2020-09-01T08:45:20 02:00</time>
      </trkpt>
      <trkpt lat="44.3178" lon="0.95059">
        <ele>162</ele>
        <time>2020-09-01T08:45:20 02:00</time>
      </trkpt>
      <trkpt lat="44.31759" lon="0.95044">
        <ele>163</ele>
        <time>2020-09-01T08:45:20 02:00</time>
      </trkpt>
      <trkpt lat="44.31739" lon="0.95028">
        <ele>161</ele>
        <time>2020-09-01T08:45:20 02:00</time>
      </trkpt>
      <trkpt lat="44.31717" lon="0.95015">
        <ele>164</ele>
        <time>2020-09-01T08:45:20 02:00</time>
      </trkpt>
      <trkpt lat="44.31696" lon="0.95002">
        <ele>164</ele>
        <time>2020-09-01T08:45:20 02:00</time>
      </trkpt>
      <trkpt lat="44.31674" lon="0.94988">
        <ele>166</ele>
        <time>2020-09-01T08:45:20 02:00</time>
      </trkpt>
      <trkpt lat="44.31654" lon="0.94972">
        <ele>165</ele>
        <time>2020-09-01T08:47:28 02:00</time>
      </trkpt>
      <trkpt lat="44.31634" lon="0.94955">
        <ele>166</ele>
        <time>2020-09-01T08:47:28 02:00</time>
      </trkpt>
      <trkpt lat="44.31613" lon="0.94939">
        <ele>165</ele>
        <time>2020-09-01T08:47:28 02:00</time>
      </trkpt>
      <trkpt lat="44.31595" lon="0.94919">
        <ele>163</ele>
        <time>2020-09-01T08:47:28 02:00</time>
      </trkpt>
      <trkpt lat="44.31576" lon="0.94901">
        <ele>164</ele>
        <time>2020-09-01T08:47:28 02:00</time>
      </trkpt>
      <trkpt lat="44.31556" lon="0.94883">
        <ele>163</ele>
        <time>2020-09-01T08:47:28 02:00</time>
      </trkpt>
      <trkpt lat="44.31537" lon="0.94866">
        <ele>163</ele>
        <time>2020-09-01T08:47:28 02:00</time>
      </trkpt>
      <trkpt lat="44.31518" lon="0.94845">
        <ele>164</ele>
        <time>2020-09-01T08:47:28 02:00</time>
      </trkpt>
      <trkpt lat="44.31498" lon="0.9483">
        <ele>167</ele>
        <time>2020-09-01T08:49:36 02:00</time>
      </trkpt>
      <trkpt lat="44.31486" lon="0.94857">
        <ele>167</ele>
        <time>2020-09-01T08:49:36 02:00</time>
      </trkpt>
      <trkpt lat="44.31477" lon="0.94887">
        <ele>168</ele>
        <time>2020-09-01T08:49:36 02:00</time>
      </trkpt>
      <trkpt lat="44.31467" lon="0.94917">
        <ele>168</ele>
        <time>2020-09-01T08:49:36 02:00</time>
      </trkpt>
      <trkpt lat="44.31444" lon="0.9492">
        <ele>168</ele>
        <time>2020-09-01T08:49:36 02:00</time>
      </trkpt>
      <trkpt lat="44.31422" lon="0.94913">
        <ele>172</ele>
        <time>2020-09-01T08:51:44 02:00</time>
      </trkpt>
      <trkpt lat="44.31399" lon="0.94907">
        <ele>176</ele>
        <time>2020-09-01T08:51:44 02:00</time>
      </trkpt>
      <trkpt lat="44.31376" lon="0.94903">
        <ele>180</ele>
        <time>2020-09-01T08:51:44 02:00</time>
      </trkpt>
      <trkpt lat="44.31354" lon="0.94896">
        <ele>181</ele>
        <time>2020-09-01T08:51:44 02:00</time>
      </trkpt>
      <trkpt lat="44.31331" lon="0.94896">
        <ele>175</ele>
        <time>2020-09-01T08:51:44 02:00</time>
      </trkpt>
      <trkpt lat="44.31309" lon="0.94884">
        <ele>171</ele>
        <time>2020-09-01T08:51:44 02:00</time>
      </trkpt>
      <trkpt lat="44.31288" lon="0.9487">
        <ele>172</ele>
        <time>2020-09-01T08:53:52 02:00</time>
      </trkpt>
      <trkpt lat="44.31268" lon="0.94853">
        <ele>176</ele>
        <time>2020-09-01T08:53:52 02:00</time>
      </trkpt>
      <trkpt lat="44.31244" lon="0.94846">
        <ele>178</ele>
        <time>2020-09-01T08:53:52 02:00</time>
      </trkpt>
      <trkpt lat="44.31221" lon="0.94851">
        <ele>181</ele>
        <time>2020-09-01T08:53:52 02:00</time>
      </trkpt>
      <trkpt lat="44.31202" lon="0.94868">
        <ele>180</ele>
        <time>2020-09-01T08:53:52 02:00</time>
      </trkpt>
      <trkpt lat="44.31183" lon="0.94886">
        <ele>178</ele>
        <time>2020-09-01T08:53:52 02:00</time>
      </trkpt>
      <trkpt lat="44.31165" lon="0.94907">
        <ele>178</ele>
        <time>2020-09-01T08:53:52 02:00</time>
      </trkpt>
      <trkpt lat="44.31146" lon="0.94926">
        <ele>177</ele>
        <time>2020-09-01T08:53:52 02:00</time>
      </trkpt>
      <trkpt lat="44.31128" lon="0.94945">
        <ele>179</ele>
        <time>2020-09-01T08:56:00 02:00</time>
      </trkpt>
      <trkpt lat="44.31113" lon="0.9497">
        <ele>177</ele>
        <time>2020-09-01T08:56:00 02:00</time>
      </trkpt>
      <trkpt lat="44.31104" lon="0.95001">
        <ele>177</ele>
        <time>2020-09-01T08:56:00 02:00</time>
      </trkpt>
      <trkpt lat="44.31097" lon="0.95031">
        <ele>179</ele>
        <time>2020-09-01T08:56:00 02:00</time>
      </trkpt>
      <trkpt lat="44.31086" lon="0.9506">
        <ele>183</ele>
        <time>2020-09-01T08:56:00 02:00</time>
      </trkpt>
      <trkpt lat="44.31078" lon="0.95092">
        <ele>184</ele>
        <time>2020-09-01T08:58:08 02:00</time>
      </trkpt>
      <trkpt lat="44.31073" lon="0.95122">
        <ele>187</ele>
        <time>2020-09-01T08:58:08 02:00</time>
      </trkpt>
      <trkpt lat="44.31065" lon="0.95153">
        <ele>188</ele>
        <time>2020-09-01T08:58:08 02:00</time>
      </trkpt>
      <trkpt lat="44.31053" lon="0.9518">
        <ele>191</ele>
        <time>2020-09-01T08:58:08 02:00</time>
      </trkpt>
      <trkpt lat="44.31074" lon="0.95197">
        <ele>198</ele>
        <time>2020-09-01T09:00:16 02:00</time>
      </trkpt>
      <trkpt lat="44.31094" lon="0.95211">
        <ele>202</ele>
        <time>2020-09-01T09:00:16 02:00</time>
      </trkpt>
      <trkpt lat="44.31114" lon="0.95227">
        <ele>206</ele>
        <time>2020-09-01T09:02:24 02:00</time>
      </trkpt>
      <trkpt lat="44.31134" lon="0.95241">
        <ele>208</ele>
        <time>2020-09-01T09:02:24 02:00</time>
      </trkpt>
      <trkpt lat="44.31156" lon="0.95251">
        <ele>215</ele>
        <time>2020-09-01T09:02:24 02:00</time>
      </trkpt>
      <trkpt lat="44.31162" lon="0.95281">
        <ele>218</ele>
        <time>2020-09-01T09:02:24 02:00</time>
      </trkpt>
      <trkpt lat="44.31158" lon="0.95312">
        <ele>211</ele>
        <time>2020-09-01T09:04:32 02:00</time>
      </trkpt>
      <trkpt lat="44.31154" lon="0.95344">
        <ele>208</ele>
        <time>2020-09-01T09:04:32 02:00</time>
      </trkpt>
      <trkpt lat="44.31148" lon="0.95376">
        <ele>205</ele>
        <time>2020-09-01T09:04:32 02:00</time>
      </trkpt>
      <trkpt lat="44.31136" lon="0.95403">
        <ele>206</ele>
        <time>2020-09-01T09:04:32 02:00</time>
      </trkpt>
      <trkpt lat="44.31126" lon="0.95431">
        <ele>205</ele>
        <time>2020-09-01T09:04:32 02:00</time>
      </trkpt>
      <trkpt lat="44.31116" lon="0.9546">
        <ele>206</ele>
        <time>2020-09-01T09:04:32 02:00</time>
      </trkpt>
      <trkpt lat="44.31106" lon="0.9549">
        <ele>203</ele>
        <time>2020-09-01T09:06:40 02:00</time>
      </trkpt>
      <trkpt lat="44.31099" lon="0.9552">
        <ele>200</ele>
        <time>2020-09-01T09:06:40 02:00</time>
      </trkpt>
      <trkpt lat="44.31095" lon="0.95551">
        <ele>195</ele>
        <time>2020-09-01T09:06:40 02:00</time>
      </trkpt>
      <trkpt lat="44.31082" lon="0.95578">
        <ele>190</ele>
        <time>2020-09-01T09:06:40 02:00</time>
      </trkpt>
      <trkpt lat="44.31077" lon="0.9561">
        <ele>191</ele>
        <time>2020-09-01T09:06:40 02:00</time>
      </trkpt>
      <trkpt lat="44.3107" lon="0.95641">
        <ele>191</ele>
        <time>2020-09-01T09:06:40 02:00</time>
      </trkpt>
      <trkpt lat="44.3106" lon="0.95671">
        <ele>194</ele>
        <time>2020-09-01T09:08:48 02:00</time>
      </trkpt>
      <trkpt lat="44.31049" lon="0.95699">
        <ele>204</ele>
        <time>2020-09-01T09:08:48 02:00</time>
      </trkpt>
      <trkpt lat="44.31029" lon="0.95682">
        <ele>217</ele>
        <time>2020-09-01T09:15:12 02:00</time>
      </trkpt>
      <trkpt lat="44.31011" lon="0.95662">
        <ele>218</ele>
        <time>2020-09-01T09:15:12 02:00</time>
      </trkpt>
      <trkpt lat="44.31003" lon="0.95632">
        <ele>208</ele>
        <time>2020-09-01T09:15:12 02:00</time>
      </trkpt>
      <trkpt lat="44.30988" lon="0.95607">
        <ele>206</ele>
        <time>2020-09-01T09:15:12 02:00</time>
      </trkpt>
      <trkpt lat="44.30967" lon="0.95592">
        <ele>203</ele>
        <time>2020-09-01T09:15:12 02:00</time>
      </trkpt>
      <trkpt lat="44.30946" lon="0.95579">
        <ele>203</ele>
        <time>2020-09-01T09:19:28 02:00</time>
      </trkpt>
      <trkpt lat="44.30924" lon="0.9557">
        <ele>198</ele>
        <time>2020-09-01T09:19:28 02:00</time>
      </trkpt>
      <trkpt lat="44.30901" lon="0.95561">
        <ele>198</ele>
        <time>2020-09-01T09:19:28 02:00</time>
      </trkpt>
      <trkpt lat="44.30879" lon="0.95555">
        <ele>197</ele>
        <time>2020-09-01T09:19:28 02:00</time>
      </trkpt>
      <trkpt lat="44.30856" lon="0.95548">
        <ele>198</ele>
        <time>2020-09-01T09:19:28 02:00</time>
      </trkpt>
      <trkpt lat="44.30834" lon="0.95539">
        <ele>195</ele>
        <time>2020-09-01T09:19:28 02:00</time>
      </trkpt>
      <trkpt lat="44.30811" lon="0.95533">
        <ele>197</ele>
        <time>2020-09-01T09:19:28 02:00</time>
      </trkpt>
      <trkpt lat="44.30788" lon="0.95524">
        <ele>195</ele>
        <time>2020-09-01T09:19:28 02:00</time>
      </trkpt>
      <trkpt lat="44.30766" lon="0.95515">
        <ele>194</ele>
        <time>2020-09-01T09:21:36 02:00</time>
      </trkpt>
      <trkpt lat="44.30743" lon="0.95507">
        <ele>191</ele>
        <time>2020-09-01T09:21:36 02:00</time>
      </trkpt>
      <trkpt lat="44.3072" lon="0.95514">
        <ele>199</ele>
        <time>2020-09-01T09:23:44 02:00</time>
      </trkpt>
      <trkpt lat="44.30697" lon="0.95518">
        <ele>200</ele>
        <time>2020-09-01T09:23:44 02:00</time>
      </trkpt>
      <trkpt lat="44.30673" lon="0.9552">
        <ele>197</ele>
        <time>2020-09-01T09:23:44 02:00</time>
      </trkpt>
      <trkpt lat="44.30651" lon="0.95523">
        <ele>200</ele>
        <time>2020-09-01T09:23:44 02:00</time>
      </trkpt>
      <trkpt lat="44.30628" lon="0.95529">
        <ele>200</ele>
        <time>2020-09-01T09:23:44 02:00</time>
      </trkpt>
      <trkpt lat="44.30604" lon="0.95533">
        <ele>199</ele>
        <time>2020-09-01T09:23:44 02:00</time>
      </trkpt>
      <trkpt lat="44.3058" lon="0.95536">
        <ele>202</ele>
        <time>2020-09-01T09:23:44 02:00</time>
      </trkpt>
      <trkpt lat="44.30557" lon="0.95539">
        <ele>205</ele>
        <time>2020-09-01T09:25:52 02:00</time>
      </trkpt>
      <trkpt lat="44.30534" lon="0.95542">
        <ele>207</ele>
        <time>2020-09-01T09:25:52 02:00</time>
      </trkpt>
      <trkpt lat="44.30511" lon="0.95539">
        <ele>207</ele>
        <time>2020-09-01T09:25:52 02:00</time>
      </trkpt>
      <trkpt lat="44.30489" lon="0.95548">
        <ele>214</ele>
        <time>2020-09-01T09:25:52 02:00</time>
      </trkpt>
      <trkpt lat="44.30466" lon="0.95555">
        <ele>216</ele>
        <time>2020-09-01T09:25:52 02:00</time>
      </trkpt>
      <trkpt lat="44.30446" lon="0.95571">
        <ele>217</ele>
        <time>2020-09-01T09:25:52 02:00</time>
      </trkpt>
      <trkpt lat="44.30425" lon="0.95586">
        <ele>219</ele>
        <time>2020-09-01T09:28:00 02:00</time>
      </trkpt>
      <trkpt lat="44.30407" lon="0.95606">
        <ele>221</ele>
        <time>2020-09-01T09:28:00 02:00</time>
      </trkpt>
      <trkpt lat="44.30393" lon="0.9563">
        <ele>227</ele>
        <time>2020-09-01T09:28:00 02:00</time>
      </trkpt>
      <trkpt lat="44.30375" lon="0.9565">
        <ele>229</ele>
        <time>2020-09-01T09:28:00 02:00</time>
      </trkpt>
      <trkpt lat="44.30352" lon="0.95647">
        <ele>234</ele>
        <time>2020-09-01T09:28:00 02:00</time>
      </trkpt>
      <trkpt lat="44.30338" lon="0.95622">
        <ele>241</ele>
        <time>2020-09-01T09:30:08 02:00</time>
      </trkpt>
      <trkpt lat="44.30325" lon="0.95595">
        <ele>244</ele>
        <time>2020-09-01T09:30:08 02:00</time>
      </trkpt>
      <trkpt lat="44.30303" lon="0.95584">
        <ele>246</ele>
        <time>2020-09-01T09:30:08 02:00</time>
      </trkpt>
      <trkpt lat="44.3028" lon="0.95583">
        <ele>247</ele>
        <time>2020-09-01T09:30:08 02:00</time>
      </trkpt>
      <trkpt lat="44.30258" lon="0.95575">
        <ele>244</ele>
        <time>2020-09-01T09:30:08 02:00</time>
      </trkpt>
      <trkpt lat="44.30234" lon="0.95573">
        <ele>243</ele>
        <time>2020-09-01T09:30:08 02:00</time>
      </trkpt>
      <trkpt lat="44.3021" lon="0.95574">
        <ele>244</ele>
        <time>2020-09-01T09:30:08 02:00</time>
      </trkpt>
      <trkpt lat="44.30186" lon="0.95575">
        <ele>244</ele>
        <time>2020-09-01T09:32:16 02:00</time>
      </trkpt>
      <trkpt lat="44.30163" lon="0.95579">
        <ele>241</ele>
        <time>2020-09-01T09:32:16 02:00</time>
      </trkpt>
      <trkpt lat="44.30141" lon="0.95589">
        <ele>241</ele>
        <time>2020-09-01T09:32:16 02:00</time>
      </trkpt>
      <trkpt lat="44.3012" lon="0.95602">
        <ele>241</ele>
        <time>2020-09-01T09:32:16 02:00</time>
      </trkpt>
      <trkpt lat="44.30097" lon="0.95606">
        <ele>241</ele>
        <time>2020-09-01T09:32:16 02:00</time>
      </trkpt>
      <trkpt lat="44.30073" lon="0.95607">
        <ele>238</ele>
        <time>2020-09-01T09:32:16 02:00</time>
      </trkpt>
      <trkpt lat="44.30051" lon="0.95611">
        <ele>239</ele>
        <time>2020-09-01T09:32:16 02:00</time>
      </trkpt>
      <trkpt lat="44.30028" lon="0.95613">
        <ele>238</ele>
        <time>2020-09-01T09:34:24 02:00</time>
      </trkpt>
      <trkpt lat="44.30005" lon="0.95611">
        <ele>238</ele>
        <time>2020-09-01T09:34:24 02:00</time>
      </trkpt>
      <trkpt lat="44.29983" lon="0.95605">
        <ele>242</ele>
        <time>2020-09-01T09:34:24 02:00</time>
      </trkpt>
      <trkpt lat="44.29963" lon="0.95586">
        <ele>244</ele>
        <time>2020-09-01T09:34:24 02:00</time>
      </trkpt>
      <trkpt lat="44.29946" lon="0.95565">
        <ele>247</ele>
        <time>2020-09-01T09:34:24 02:00</time>
      </trkpt>
      <trkpt lat="44.29927" lon="0.95548">
        <ele>249</ele>
        <time>2020-09-01T09:34:24 02:00</time>
      </trkpt>
      <trkpt lat="44.29908" lon="0.9553">
        <ele>254</ele>
        <time>2020-09-01T09:34:24 02:00</time>
      </trkpt>
      <trkpt lat="44.29891" lon="0.95506">
        <ele>260</ele>
        <time>2020-09-01T09:36:32 02:00</time>
      </trkpt>
      <trkpt lat="44.29873" lon="0.95484">
        <ele>261</ele>
        <time>2020-09-01T09:36:32 02:00</time>
      </trkpt>
      <trkpt lat="44.29858" lon="0.9546">
        <ele>263</ele>
        <time>2020-09-01T09:36:32 02:00</time>
      </trkpt>
      <trkpt lat="44.29842" lon="0.95438">
        <ele>267</ele>
        <time>2020-09-01T09:36:32 02:00</time>
      </trkpt>
      <trkpt lat="44.29827" lon="0.95413">
        <ele>265</ele>
        <time>2020-09-01T09:36:32 02:00</time>
      </trkpt>
      <trkpt lat="44.29814" lon="0.95386">
        <ele>266</ele>
        <time>2020-09-01T09:36:32 02:00</time>
      </trkpt>
      <trkpt lat="44.29801" lon="0.95359">
        <ele>266</ele>
        <time>2020-09-01T09:38:40 02:00</time>
      </trkpt>
      <trkpt lat="44.29787" lon="0.95332">
        <ele>273</ele>
        <time>2020-09-01T09:38:40 02:00</time>
      </trkpt>
      <trkpt lat="44.29774" lon="0.95304">
        <ele>278</ele>
        <time>2020-09-01T09:38:40 02:00</time>
      </trkpt>
      <trkpt lat="44.29761" lon="0.95278">
        <ele>279</ele>
        <time>2020-09-01T09:38:40 02:00</time>
      </trkpt>
      <trkpt lat="44.29748" lon="0.95253">
        <ele>276</ele>
        <time>2020-09-01T09:38:40 02:00</time>
      </trkpt>
      <trkpt lat="44.29734" lon="0.95227">
        <ele>275</ele>
        <time>2020-09-01T09:38:40 02:00</time>
      </trkpt>
      <trkpt lat="44.29721" lon="0.95201">
        <ele>277</ele>
        <time>2020-09-01T09:38:40 02:00</time>
      </trkpt>
      <trkpt lat="44.29708" lon="0.95174">
        <ele>277</ele>
        <time>2020-09-01T09:38:40 02:00</time>
      </trkpt>
      <trkpt lat="44.2971" lon="0.95142">
        <ele>281</ele>
        <time>2020-09-01T09:40:48 02:00</time>
      </trkpt>
      <trkpt lat="44.2972" lon="0.95113">
        <ele>279</ele>
        <time>2020-09-01T09:40:48 02:00</time>
      </trkpt>
      <trkpt lat="44.2973" lon="0.95084">
        <ele>278</ele>
        <time>2020-09-01T09:40:48 02:00</time>
      </trkpt>
      <trkpt lat="44.29741" lon="0.95056">
        <ele>278</ele>
        <time>2020-09-01T09:40:48 02:00</time>
      </trkpt>
      <trkpt lat="44.29749" lon="0.95027">
        <ele>278</ele>
        <time>2020-09-01T09:40:48 02:00</time>
      </trkpt>
      <trkpt lat="44.29759" lon="0.94997">
        <ele>279</ele>
        <time>2020-09-01T09:42:56 02:00</time>
      </trkpt>
      <trkpt lat="44.29781" lon="0.9499">
        <ele>281</ele>
        <time>2020-09-01T09:42:56 02:00</time>
      </trkpt>
      <trkpt lat="44.29804" lon="0.9499">
        <ele>277</ele>
        <time>2020-09-01T09:42:56 02:00</time>
      </trkpt>
      <trkpt lat="44.29808" lon="0.94958">
        <ele>277</ele>
        <time>2020-09-01T09:42:56 02:00</time>
      </trkpt>
      <trkpt lat="44.29808" lon="0.94926">
        <ele>277</ele>
        <time>2020-09-01T09:42:56 02:00</time>
      </trkpt>
      <trkpt lat="44.2981" lon="0.94894">
        <ele>277</ele>
        <time>2020-09-01T09:42:56 02:00</time>
      </trkpt>
      <trkpt lat="44.29811" lon="0.9486">
        <ele>276</ele>
        <time>2020-09-01T09:42:56 02:00</time>
      </trkpt>
      <trkpt lat="44.29812" lon="0.94829">
        <ele>276</ele>
        <time>2020-09-01T09:45:04 02:00</time>
      </trkpt>
      <trkpt lat="44.2981" lon="0.94797">
        <ele>279</ele>
        <time>2020-09-01T09:47:12 02:00</time>
      </trkpt>
      <trkpt lat="44.29814" lon="0.94765">
        <ele>274</ele>
        <time>2020-09-01T09:47:12 02:00</time>
      </trkpt>
      <trkpt lat="44.29817" lon="0.94733">
        <ele>272</ele>
        <time>2020-09-01T09:47:12 02:00</time>
      </trkpt>
      <trkpt lat="44.29818" lon="0.947">
        <ele>273</ele>
        <time>2020-09-01T09:47:12 02:00</time>
      </trkpt>
      <trkpt lat="44.29817" lon="0.94668">
        <ele>273</ele>
        <time>2020-09-01T09:47:12 02:00</time>
      </trkpt>
      <trkpt lat="44.29813" lon="0.94636">
        <ele>273</ele>
        <time>2020-09-01T09:49:20 02:00</time>
      </trkpt>
      <trkpt lat="44.29807" lon="0.94606">
        <ele>272</ele>
        <time>2020-09-01T09:49:20 02:00</time>
      </trkpt>
      <trkpt lat="44.29802" lon="0.94574">
        <ele>271</ele>
        <time>2020-09-01T09:49:20 02:00</time>
      </trkpt>
      <trkpt lat="44.298" lon="0.94541">
        <ele>273</ele>
        <time>2020-09-01T09:49:20 02:00</time>
      </trkpt>
      <trkpt lat="44.29801" lon="0.94509">
        <ele>270</ele>
        <time>2020-09-01T09:49:20 02:00</time>
      </trkpt>
      <trkpt lat="44.29802" lon="0.94476">
        <ele>267</ele>
        <time>2020-09-01T09:49:20 02:00</time>
      </trkpt>
      <trkpt lat="44.29804" lon="0.94443">
        <ele>266</ele>
        <time>2020-09-01T09:49:20 02:00</time>
      </trkpt>
      <trkpt lat="44.29808" lon="0.94412">
        <ele>268</ele>
        <time>2020-09-01T09:51:28 02:00</time>
      </trkpt>
      <trkpt lat="44.2981" lon="0.9438">
        <ele>268</ele>
        <time>2020-09-01T09:51:28 02:00</time>
      </trkpt>
      <trkpt lat="44.29812" lon="0.94348">
        <ele>268</ele>
        <time>2020-09-01T09:51:28 02:00</time>
      </trkpt>
      <trkpt lat="44.29811" lon="0.94317">
        <ele>267</ele>
        <time>2020-09-01T09:51:28 02:00</time>
      </trkpt>
      <trkpt lat="44.29811" lon="0.94285">
        <ele>267</ele>
        <time>2020-09-01T09:51:28 02:00</time>
      </trkpt>
      <trkpt lat="44.29812" lon="0.94254">
        <ele>267</ele>
        <time>2020-09-01T09:51:28 02:00</time>
      </trkpt>
      <trkpt lat="44.29811" lon="0.94222">
        <ele>269</ele>
        <time>2020-09-01T09:51:28 02:00</time>
      </trkpt>
      <trkpt lat="44.2981" lon="0.9419">
        <ele>273</ele>
        <time>2020-09-01T09:53:36 02:00</time>
      </trkpt>
      <trkpt lat="44.29807" lon="0.94158">
        <ele>271</ele>
        <time>2020-09-01T09:55:44 02:00</time>
      </trkpt>
      <trkpt lat="44.29789" lon="0.94136">
        <ele>267</ele>
        <time>2020-09-01T09:55:44 02:00</time>
      </trkpt>
      <trkpt lat="44.29766" lon="0.94128">
        <ele>262</ele>
        <time>2020-09-01T09:57:52 02:00</time>
      </trkpt>
      <trkpt lat="44.29749" lon="0.94107">
        <ele>261</ele>
        <time>2020-09-01T09:57:52 02:00</time>
      </trkpt>
      <trkpt lat="44.29739" lon="0.94078">
        <ele>259</ele>
        <time>2020-09-01T09:57:52 02:00</time>
      </trkpt>
      <trkpt lat="44.29744" lon="0.94046">
        <ele>259</ele>
        <time>2020-09-01T09:57:52 02:00</time>
      </trkpt>
      <trkpt lat="44.29753" lon="0.94017">
        <ele>257</ele>
        <time>2020-09-01T09:57:52 02:00</time>
      </trkpt>
      <trkpt lat="44.29761" lon="0.93987">
        <ele>257</ele>
        <time>2020-09-01T09:57:52 02:00</time>
      </trkpt>
      <trkpt lat="44.29768" lon="0.93957">
        <ele>255</ele>
        <time>2020-09-01T09:57:52 02:00</time>
      </trkpt>
      <trkpt lat="44.29773" lon="0.93926">
        <ele>250</ele>
        <time>2020-09-01T09:57:52 02:00</time>
      </trkpt>
      <trkpt lat="44.29781" lon="0.93894">
        <ele>245</ele>
        <time>2020-09-01T10:00:00 02:00</time>
      </trkpt>
      <trkpt lat="44.29786" lon="0.93862">
        <ele>244</ele>
        <time>2020-09-01T10:00:00 02:00</time>
      </trkpt>
      <trkpt lat="44.29785" lon="0.9383">
        <ele>242</ele>
        <time>2020-09-01T10:00:00 02:00</time>
      </trkpt>
      <trkpt lat="44.29786" lon="0.93797">
        <ele>240</ele>
        <time>2020-09-01T10:00:00 02:00</time>
      </trkpt>
      <trkpt lat="44.29789" lon="0.93766">
        <ele>243</ele>
        <time>2020-09-01T10:00:00 02:00</time>
      </trkpt>
      <trkpt lat="44.2979" lon="0.93734">
        <ele>246</ele>
        <time>2020-09-01T10:00:00 02:00</time>
      </trkpt>
      <trkpt lat="44.29793" lon="0.93701">
        <ele>246</ele>
        <time>2020-09-01T10:00:00 02:00</time>
      </trkpt>
      <trkpt lat="44.29797" lon="0.9367">
        <ele>246</ele>
        <time>2020-09-01T10:00:00 02:00</time>
      </trkpt>
      <trkpt lat="44.29801" lon="0.93637">
        <ele>247</ele>
        <time>2020-09-01T10:02:08 02:00</time>
      </trkpt>
      <trkpt lat="44.29807" lon="0.93606">
        <ele>250</ele>
        <time>2020-09-01T10:02:08 02:00</time>
      </trkpt>
      <trkpt lat="44.29813" lon="0.93575">
        <ele>249</ele>
        <time>2020-09-01T10:02:08 02:00</time>
      </trkpt>
      <trkpt lat="44.29815" lon="0.93542">
        <ele>244</ele>
        <time>2020-09-01T10:02:08 02:00</time>
      </trkpt>
      <trkpt lat="44.29821" lon="0.9351">
        <ele>242</ele>
        <time>2020-09-01T10:02:08 02:00</time>
      </trkpt>
      <trkpt lat="44.29824" lon="0.93478">
        <ele>243</ele>
        <time>2020-09-01T10:02:08 02:00</time>
      </trkpt>
      <trkpt lat="44.29825" lon="0.93446">
        <ele>240</ele>
        <time>2020-09-01T10:04:16 02:00</time>
      </trkpt>
      <trkpt lat="44.29825" lon="0.93413">
        <ele>235</ele>
        <time>2020-09-01T10:04:16 02:00</time>
      </trkpt>
      <trkpt lat="44.29826" lon="0.93382">
        <ele>231</ele>
        <time>2020-09-01T10:04:16 02:00</time>
      </trkpt>
      <trkpt lat="44.29827" lon="0.93349">
        <ele>229</ele>
        <time>2020-09-01T10:04:16 02:00</time>
      </trkpt>
      <trkpt lat="44.29831" lon="0.93317">
        <ele>232</ele>
        <time>2020-09-01T10:04:16 02:00</time>
      </trkpt>
      <trkpt lat="44.29833" lon="0.93285">
        <ele>238</ele>
        <time>2020-09-01T10:04:16 02:00</time>
      </trkpt>
      <trkpt lat="44.29833" lon="0.93252">
        <ele>241</ele>
        <time>2020-09-01T10:04:16 02:00</time>
      </trkpt>
      <trkpt lat="44.29828" lon="0.93222">
        <ele>250</ele>
        <time>2020-09-01T10:04:16 02:00</time>
      </trkpt>
      <trkpt lat="44.29823" lon="0.9319">
        <ele>251</ele>
        <time>2020-09-01T10:06:24 02:00</time>
      </trkpt>
      <trkpt lat="44.29819" lon="0.93159">
        <ele>248</ele>
        <time>2020-09-01T10:06:24 02:00</time>
      </trkpt>
      <trkpt lat="44.29816" lon="0.93126">
        <ele>241</ele>
        <time>2020-09-01T10:06:24 02:00</time>
      </trkpt>
      <trkpt lat="44.29808" lon="0.93095">
        <ele>241</ele>
        <time>2020-09-01T10:06:24 02:00</time>
      </trkpt>
      <trkpt lat="44.29805" lon="0.93064">
        <ele>251</ele>
        <time>2020-09-01T10:06:24 02:00</time>
      </trkpt>
      <trkpt lat="44.29792" lon="0.93038">
        <ele>256</ele>
        <time>2020-09-01T10:08:32 02:00</time>
      </trkpt>
      <trkpt lat="44.29773" lon="0.93015">
        <ele>254</ele>
        <time>2020-09-01T10:08:32 02:00</time>
      </trkpt>
      <trkpt lat="44.29754" lon="0.92995">
        <ele>254</ele>
        <time>2020-09-01T10:08:32 02:00</time>
      </trkpt>
      <trkpt lat="44.29735" lon="0.92978">
        <ele>251</ele>
        <time>2020-09-01T10:08:32 02:00</time>
      </trkpt>
      <trkpt lat="44.29716" lon="0.92959">
        <ele>247</ele>
        <time>2020-09-01T10:08:32 02:00</time>
      </trkpt>
      <trkpt lat="44.29713" lon="0.92927">
        <ele>239</ele>
        <time>2020-09-01T10:08:32 02:00</time>
      </trkpt>
      <trkpt lat="44.29713" lon="0.92895">
        <ele>229</ele>
        <time>2020-09-01T10:10:40 02:00</time>
      </trkpt>
      <trkpt lat="44.29721" lon="0.92864">
        <ele>225</ele>
        <time>2020-09-01T10:10:40 02:00</time>
      </trkpt>
      <trkpt lat="44.29727" lon="0.92833">
        <ele>219</ele>
        <time>2020-09-01T10:10:40 02:00</time>
      </trkpt>
      <trkpt lat="44.29735" lon="0.92803">
        <ele>218</ele>
        <time>2020-09-01T10:10:40 02:00</time>
      </trkpt>
      <trkpt lat="44.29743" lon="0.92774">
        <ele>218</ele>
        <time>2020-09-01T10:10:40 02:00</time>
      </trkpt>
      <trkpt lat="44.29747" lon="0.92742">
        <ele>215</ele>
        <time>2020-09-01T10:10:40 02:00</time>
      </trkpt>
      <trkpt lat="44.2974" lon="0.92712">
        <ele>210</ele>
        <time>2020-09-01T10:12:48 02:00</time>
      </trkpt>
      <trkpt lat="44.29761" lon="0.92699">
        <ele>205</ele>
        <time>2020-09-01T10:12:48 02:00</time>
      </trkpt>
      <trkpt lat="44.29785" lon="0.92699">
        <ele>203</ele>
        <time>2020-09-01T10:12:48 02:00</time>
      </trkpt>
      <trkpt lat="44.29808" lon="0.92698">
        <ele>202</ele>
        <time>2020-09-01T10:12:48 02:00</time>
      </trkpt>
      <trkpt lat="44.2983" lon="0.92692">
        <ele>199</ele>
        <time>2020-09-01T10:12:48 02:00</time>
      </trkpt>
      <trkpt lat="44.29853" lon="0.92686">
        <ele>198</ele>
        <time>2020-09-01T10:14:56 02:00</time>
      </trkpt>
      <trkpt lat="44.29876" lon="0.92693">
        <ele>198</ele>
        <time>2020-09-01T10:14:56 02:00</time>
      </trkpt>
      <trkpt lat="44.29899" lon="0.92696">
        <ele>198</ele>
        <time>2020-09-01T10:14:56 02:00</time>
      </trkpt>
      <trkpt lat="44.29921" lon="0.9271">
        <ele>201</ele>
        <time>2020-09-01T10:14:56 02:00</time>
      </trkpt>
      <trkpt lat="44.29943" lon="0.92718">
        <ele>200</ele>
        <time>2020-09-01T10:14:56 02:00</time>
      </trkpt>
      <trkpt lat="44.29964" lon="0.92731">
        <ele>199</ele>
        <time>2020-09-01T10:14:56 02:00</time>
      </trkpt>
      <trkpt lat="44.29987" lon="0.92738">
        <ele>199</ele>
        <time>2020-09-01T10:14:56 02:00</time>
      </trkpt>
      <trkpt lat="44.30009" lon="0.92748">
        <ele>197</ele>
        <time>2020-09-01T10:17:04 02:00</time>
      </trkpt>
      <trkpt lat="44.30028" lon="0.92765">
        <ele>197</ele>
        <time>2020-09-01T10:17:04 02:00</time>
      </trkpt>
      <trkpt lat="44.30043" lon="0.9274">
        <ele>195</ele>
        <time>2020-09-01T10:17:04 02:00</time>
      </trkpt>
      <trkpt lat="44.30047" lon="0.92709">
        <ele>193</ele>
        <time>2020-09-01T10:19:12 02:00</time>
      </trkpt>
      <trkpt lat="44.3004" lon="0.92678">
        <ele>190</ele>
        <time>2020-09-01T10:19:12 02:00</time>
      </trkpt>
      <trkpt lat="44.30036" lon="0.92647">
        <ele>185</ele>
        <time>2020-09-01T10:19:12 02:00</time>
      </trkpt>
      <trkpt lat="44.3005" lon="0.92621">
        <ele>184</ele>
        <time>2020-09-01T10:19:12 02:00</time>
      </trkpt>
      <trkpt lat="44.30064" lon="0.92594">
        <ele>180</ele>
        <time>2020-09-01T10:19:12 02:00</time>
      </trkpt>
      <trkpt lat="44.30052" lon="0.92566">
        <ele>177</ele>
        <time>2020-09-01T10:21:20 02:00</time>
      </trkpt>
      <trkpt lat="44.30035" lon="0.92545">
        <ele>173</ele>
        <time>2020-09-01T10:21:20 02:00</time>
      </trkpt>
      <trkpt lat="44.30043" lon="0.92515">
        <ele>170</ele>
        <time>2020-09-01T10:21:20 02:00</time>
      </trkpt>
      <trkpt lat="44.30059" lon="0.92491">
        <ele>169</ele>
        <time>2020-09-01T10:21:20 02:00</time>
      </trkpt>
      <trkpt lat="44.3008" lon="0.9248">
        <ele>168</ele>
        <time>2020-09-01T10:23:28 02:00</time>
      </trkpt>
      <trkpt lat="44.30103" lon="0.92469">
        <ele>169</ele>
        <time>2020-09-01T10:23:28 02:00</time>
      </trkpt>
      <trkpt lat="44.30124" lon="0.92459">
        <ele>168</ele>
        <time>2020-09-01T10:23:28 02:00</time>
      </trkpt>
      <trkpt lat="44.30148" lon="0.9246">
        <ele>167</ele>
        <time>2020-09-01T10:23:28 02:00</time>
      </trkpt>
      <trkpt lat="44.30171" lon="0.9245">
        <ele>163</ele>
        <time>2020-09-01T10:25:36 02:00</time>
      </trkpt>
      <trkpt lat="44.30189" lon="0.92432">
        <ele>161</ele>
        <time>2020-09-01T10:25:36 02:00</time>
      </trkpt>
      <trkpt lat="44.30209" lon="0.92415">
        <ele>159</ele>
        <time>2020-09-01T10:25:36 02:00</time>
      </trkpt>
      <trkpt lat="44.3023" lon="0.92406">
        <ele>159</ele>
        <time>2020-09-01T10:25:36 02:00</time>
      </trkpt>
      <trkpt lat="44.30241" lon="0.92434">
        <ele>160</ele>
        <time>2020-09-01T10:25:36 02:00</time>
      </trkpt>
      <trkpt lat="44.3025" lon="0.92463">
        <ele>159</ele>
        <time>2020-09-01T10:25:36 02:00</time>
      </trkpt>
      <trkpt lat="44.30261" lon="0.92491">
        <ele>159</ele>
        <time>2020-09-01T10:25:36 02:00</time>
      </trkpt>
      <trkpt lat="44.30275" lon="0.92516">
        <ele>160</ele>
        <time>2020-09-01T10:25:36 02:00</time>
      </trkpt>
      <trkpt lat="44.30285" lon="0.92546">
        <ele>157</ele>
        <time>2020-09-01T10:27:44 02:00</time>
      </trkpt>
      <trkpt lat="44.30298" lon="0.92573">
        <ele>156</ele>
        <time>2020-09-01T10:27:44 02:00</time>
      </trkpt>
      <trkpt lat="44.30309" lon="0.92602">
        <ele>157</ele>
        <time>2020-09-01T10:27:44 02:00</time>
      </trkpt>
      <trkpt lat="44.3032" lon="0.92632">
        <ele>159</ele>
        <time>2020-09-01T10:27:44 02:00</time>
      </trkpt>
      <trkpt lat="44.30332" lon="0.92661">
        <ele>160</ele>
        <time>2020-09-01T10:27:44 02:00</time>
      </trkpt>
      <trkpt lat="44.30341" lon="0.92686">
        <ele>160</ele>
        <time>2020-09-01T10:27:44 02:00</time>
      </trkpt>
      <trkpt lat="44.30362" lon="0.92697">
        <ele>160</ele>
        <time>2020-09-01T10:29:52 02:00</time>
      </trkpt>
      <trkpt lat="44.30384" lon="0.92687">
        <ele>159</ele>
        <time>2020-09-01T10:29:52 02:00</time>
      </trkpt>
      <trkpt lat="44.30406" lon="0.92677">
        <ele>158</ele>
        <time>2020-09-01T10:29:52 02:00</time>
      </trkpt>
      <trkpt lat="44.30428" lon="0.92664">
        <ele>157</ele>
        <time>2020-09-01T10:29:52 02:00</time>
      </trkpt>
      <trkpt lat="44.30451" lon="0.92657">
        <ele>156</ele>
        <time>2020-09-01T10:29:52 02:00</time>
      </trkpt>
      <trkpt lat="44.30472" lon="0.92647">
        <ele>155</ele>
        <time>2020-09-01T10:29:52 02:00</time>
      </trkpt>
      <trkpt lat="44.30495" lon="0.92642">
        <ele>152</ele>
        <time>2020-09-01T10:29:52 02:00</time>
      </trkpt>
      <trkpt lat="44.30517" lon="0.92633">
        <ele>152</ele>
        <time>2020-09-01T10:32:00 02:00</time>
      </trkpt>
      <trkpt lat="44.30541" lon="0.92628">
        <ele>154</ele>
        <time>2020-09-01T10:32:00 02:00</time>
      </trkpt>
      <trkpt lat="44.30564" lon="0.92623">
        <ele>155</ele>
        <time>2020-09-01T10:32:00 02:00</time>
      </trkpt>
      <trkpt lat="44.30587" lon="0.92616">
        <ele>155</ele>
        <time>2020-09-01T10:32:00 02:00</time>
      </trkpt>
      <trkpt lat="44.30607" lon="0.92602">
        <ele>153</ele>
        <time>2020-09-01T10:32:00 02:00</time>
      </trkpt>
      <trkpt lat="44.30624" lon="0.92578">
        <ele>153</ele>
        <time>2020-09-01T10:32:00 02:00</time>
      </trkpt>
      <trkpt lat="44.30637" lon="0.92551">
        <ele>156</ele>
        <time>2020-09-01T10:32:00 02:00</time>
      </trkpt>
      <trkpt lat="44.30651" lon="0.92526">
        <ele>156</ele>
        <time>2020-09-01T10:32:00 02:00</time>
      </trkpt>
      <trkpt lat="44.30667" lon="0.92549">
        <ele>162</ele>
        <time>2020-09-01T10:34:08 02:00</time>
      </trkpt>
      <trkpt lat="44.30676" lon="0.92579">
        <ele>160</ele>
        <time>2020-09-01T10:34:08 02:00</time>
      </trkpt>
      <trkpt lat="44.30682" lon="0.92611">
        <ele>158</ele>
        <time>2020-09-01T10:34:08 02:00</time>
      </trkpt>
      <trkpt lat="44.3069" lon="0.92642">
        <ele>158</ele>
        <time>2020-09-01T10:34:08 02:00</time>
      </trkpt>
      <trkpt lat="44.30695" lon="0.92673">
        <ele>159</ele>
        <time>2020-09-01T10:34:08 02:00</time>
      </trkpt>
      <trkpt lat="44.30698" lon="0.92704">
        <ele>159</ele>
        <time>2020-09-01T10:34:08 02:00</time>
      </trkpt>
      <trkpt lat="44.30703" lon="0.92735">
        <ele>158</ele>
        <time>2020-09-01T10:36:16 02:00</time>
      </trkpt>
      <trkpt lat="44.30706" lon="0.92767">
        <ele>157</ele>
        <time>2020-09-01T10:36:16 02:00</time>
      </trkpt>
      <trkpt lat="44.3071" lon="0.92798">
        <ele>157</ele>
        <time>2020-09-01T10:36:16 02:00</time>
      </trkpt>
      <trkpt lat="44.30695" lon="0.92824">
        <ele>157</ele>
        <time>2020-09-01T10:36:16 02:00</time>
      </trkpt>
      <trkpt lat="44.30689" lon="0.92855">
        <ele>156</ele>
        <time>2020-09-01T10:36:16 02:00</time>
      </trkpt>
      <trkpt lat="44.30701" lon="0.92883">
        <ele>154</ele>
        <time>2020-09-01T10:36:16 02:00</time>
      </trkpt>
      <trkpt lat="44.30715" lon="0.92909">
        <ele>156</ele>
        <time>2020-09-01T10:36:16 02:00</time>
      </trkpt>
      <trkpt lat="44.30731" lon="0.92931">
        <ele>156</ele>
        <time>2020-09-01T10:38:24 02:00</time>
      </trkpt>
      <trkpt lat="44.30745" lon="0.92957">
        <ele>157</ele>
        <time>2020-09-01T10:38:24 02:00</time>
      </trkpt>
      <trkpt lat="44.30754" lon="0.92986">
        <ele>157</ele>
        <time>2020-09-01T10:38:24 02:00</time>
      </trkpt>
      <trkpt lat="44.30759" lon="0.93018">
        <ele>157</ele>
        <time>2020-09-01T10:38:24 02:00</time>
      </trkpt>
      <trkpt lat="44.30771" lon="0.93047">
        <ele>152</ele>
        <time>2020-09-01T10:38:24 02:00</time>
      </trkpt>
      <trkpt lat="44.30779" lon="0.93077">
        <ele>152</ele>
        <time>2020-09-01T10:38:24 02:00</time>
      </trkpt>
      <trkpt lat="44.30787" lon="0.93108">
        <ele>156</ele>
        <time>2020-09-01T10:38:24 02:00</time>
      </trkpt>
      <trkpt lat="44.30801" lon="0.93135">
        <ele>161</ele>
        <time>2020-09-01T10:40:32 02:00</time>
      </trkpt>
      <trkpt lat="44.30815" lon="0.9316">
        <ele>160</ele>
        <time>2020-09-01T10:40:32 02:00</time>
      </trkpt>
      <trkpt lat="44.30831" lon="0.93184">
        <ele>156</ele>
        <time>2020-09-01T10:40:32 02:00</time>
      </trkpt>
      <trkpt lat="44.30842" lon="0.93212">
        <ele>156</ele>
        <time>2020-09-01T10:40:32 02:00</time>
      </trkpt>
      <trkpt lat="44.30852" lon="0.93241">
        <ele>158</ele>
        <time>2020-09-01T10:40:32 02:00</time>
      </trkpt>
      <trkpt lat="44.30859" lon="0.93272">
        <ele>158</ele>
        <time>2020-09-01T10:40:32 02:00</time>
      </trkpt>
      <trkpt lat="44.30869" lon="0.93302">
        <ele>156</ele>
        <time>2020-09-01T10:40:32 02:00</time>
      </trkpt>
      <trkpt lat="44.30883" lon="0.93327">
        <ele>154</ele>
        <time>2020-09-01T10:42:40 02:00</time>
      </trkpt>
      <trkpt lat="44.30894" lon="0.93355">
        <ele>155</ele>
        <time>2020-09-01T10:42:40 02:00</time>
      </trkpt>
      <trkpt lat="44.30912" lon="0.93376">
        <ele>155</ele>
        <time>2020-09-01T10:42:40 02:00</time>
      </trkpt>
      <trkpt lat="44.30932" lon="0.93392">
        <ele>153</ele>
        <time>2020-09-01T10:42:40 02:00</time>
      </trkpt>
      <trkpt lat="44.30951" lon="0.93409">
        <ele>150</ele>
        <time>2020-09-01T10:42:40 02:00</time>
      </trkpt>
      <trkpt lat="44.3097" lon="0.93433">
        <ele>146</ele>
        <time>2020-09-01T10:42:40 02:00</time>
      </trkpt>
      <trkpt lat="44.30983" lon="0.93459">
        <ele>141</ele>
        <time>2020-09-01T10:44:48 02:00</time>
      </trkpt>
      <trkpt lat="44.31001" lon="0.93481">
        <ele>139</ele>
        <time>2020-09-01T10:44:48 02:00</time>
      </trkpt>
      <trkpt lat="44.31016" lon="0.93505">
        <ele>139</ele>
        <time>2020-09-01T10:44:48 02:00</time>
      </trkpt>
      <trkpt lat="44.31034" lon="0.93529">
        <ele>140</ele>
        <time>2020-09-01T10:44:48 02:00</time>
      </trkpt>
      <trkpt lat="44.31054" lon="0.93544">
        <ele>139</ele>
        <time>2020-09-01T10:44:48 02:00</time>
      </trkpt>
      <trkpt lat="44.31073" lon="0.93566">
        <ele>144</ele>
        <time>2020-09-01T10:44:48 02:00</time>
      </trkpt>
      <trkpt lat="44.31095" lon="0.9357">
        <ele>144</ele>
        <time>2020-09-01T10:44:48 02:00</time>
      </trkpt>
      <trkpt lat="44.31118" lon="0.93573">
        <ele>151</ele>
        <time>2020-09-01T10:49:04 02:00</time>
      </trkpt>
      <trkpt lat="44.31141" lon="0.93572">
        <ele>158</ele>
        <time>2020-09-01T10:49:04 02:00</time>
      </trkpt>
      <trkpt lat="44.31165" lon="0.93575">
        <ele>161</ele>
        <time>2020-09-01T10:49:04 02:00</time>
      </trkpt>
      <trkpt lat="44.31186" lon="0.93586">
        <ele>162</ele>
        <time>2020-09-01T10:49:04 02:00</time>
      </trkpt>
      <trkpt lat="44.31205" lon="0.93605">
        <ele>162</ele>
        <time>2020-09-01T10:49:04 02:00</time>
      </trkpt>
      <trkpt lat="44.31228" lon="0.9361">
        <ele>166</ele>
        <time>2020-09-01T10:51:12 02:00</time>
      </trkpt>
      <trkpt lat="44.31251" lon="0.93615">
        <ele>169</ele>
        <time>2020-09-01T10:51:12 02:00</time>
      </trkpt>
      <trkpt lat="44.31274" lon="0.93623">
        <ele>173</ele>
        <time>2020-09-01T10:51:12 02:00</time>
      </trkpt>
      <trkpt lat="44.31297" lon="0.93627">
        <ele>176</ele>
        <time>2020-09-01T10:51:12 02:00</time>
      </trkpt>
      <trkpt lat="44.31319" lon="0.93636">
        <ele>180</ele>
        <time>2020-09-01T10:51:12 02:00</time>
      </trkpt>
      <trkpt lat="44.31342" lon="0.93637">
        <ele>186</ele>
        <time>2020-09-01T10:51:12 02:00</time>
      </trkpt>
      <trkpt lat="44.31364" lon="0.93646">
        <ele>192</ele>
        <time>2020-09-01T10:53:20 02:00</time>
      </trkpt>
      <trkpt lat="44.31383" lon="0.93664">
        <ele>195</ele>
        <time>2020-09-01T10:53:20 02:00</time>
      </trkpt>
      <trkpt lat="44.31399" lon="0.93687">
        <ele>199</ele>
        <time>2020-09-01T10:53:20 02:00</time>
      </trkpt>
      <trkpt lat="44.31414" lon="0.9371">
        <ele>203</ele>
        <time>2020-09-01T10:55:28 02:00</time>
      </trkpt>
      <trkpt lat="44.31437" lon="0.93716">
        <ele>206</ele>
        <time>2020-09-01T10:55:28 02:00</time>
      </trkpt>
      <trkpt lat="44.31459" lon="0.93727">
        <ele>208</ele>
        <time>2020-09-01T10:57:36 02:00</time>
      </trkpt>
      <trkpt lat="44.31479" lon="0.93739">
        <ele>212</ele>
        <time>2020-09-01T10:57:36 02:00</time>
      </trkpt>
      <trkpt lat="44.315" lon="0.93752">
        <ele>215</ele>
        <time>2020-09-01T10:57:36 02:00</time>
      </trkpt>
      <trkpt lat="44.31522" lon="0.93759">
        <ele>219</ele>
        <time>2020-09-01T10:57:36 02:00</time>
      </trkpt>
      <trkpt lat="44.31543" lon="0.93774">
        <ele>226</ele>
        <time>2020-09-01T10:59:44 02:00</time>
      </trkpt>
      <trkpt lat="44.31563" lon="0.9379">
        <ele>229</ele>
        <time>2020-09-01T10:59:44 02:00</time>
      </trkpt>
      <trkpt lat="44.31584" lon="0.93803">
        <ele>234</ele>
        <time>2020-09-01T10:59:44 02:00</time>
      </trkpt>
      <trkpt lat="44.31604" lon="0.93819">
        <ele>245</ele>
        <time>2020-09-01T10:59:44 02:00</time>
      </trkpt>
      <trkpt lat="44.31623" lon="0.93837">
        <ele>233</ele>
        <time>2020-09-01T11:01:52 02:00</time>
      </trkpt>
      <trkpt lat="44.31642" lon="0.93853">
        <ele>230</ele>
        <time>2020-09-01T11:01:52 02:00</time>
      </trkpt>
      <trkpt lat="44.31659" lon="0.93878">
        <ele>223</ele>
        <time>2020-09-01T11:01:52 02:00</time>
      </trkpt>
      <trkpt lat="44.31676" lon="0.93899">
        <ele>223</ele>
        <time>2020-09-01T11:01:52 02:00</time>
      </trkpt>
      <trkpt lat="44.31694" lon="0.93918">
        <ele>224</ele>
        <time>2020-09-01T11:01:52 02:00</time>
      </trkpt>
      <trkpt lat="44.31714" lon="0.93938">
        <ele>224</ele>
        <time>2020-09-01T11:01:52 02:00</time>
      </trkpt>
      <trkpt lat="44.31726" lon="0.93964">
        <ele>226</ele>
        <time>2020-09-01T11:01:52 02:00</time>
      </trkpt>
      <trkpt lat="44.31735" lon="0.93995">
        <ele>231</ele>
        <time>2020-09-01T11:04:00 02:00</time>
      </trkpt>
      <trkpt lat="44.31749" lon="0.94024">
        <ele>246</ele>
        <time>2020-09-01T11:04:00 02:00</time>
      </trkpt>
      <trkpt lat="44.3177" lon="0.94035">
        <ele>251</ele>
        <time>2020-09-01T11:04:00 02:00</time>
      </trkpt>
      <trkpt lat="44.31792" lon="0.94044">
        <ele>251</ele>
        <time>2020-09-01T11:04:00 02:00</time>
      </trkpt>
      <trkpt lat="44.31814" lon="0.94054">
        <ele>251</ele>
        <time>2020-09-01T11:04:00 02:00</time>
      </trkpt>
      <trkpt lat="44.31836" lon="0.94066">
        <ele>254</ele>
        <time>2020-09-01T11:04:00 02:00</time>
      </trkpt>
      <trkpt lat="44.31855" lon="0.94085">
        <ele>258</ele>
        <time>2020-09-01T11:06:08 02:00</time>
      </trkpt>
      <trkpt lat="44.31871" lon="0.94109">
        <ele>260</ele>
        <time>2020-09-01T11:06:08 02:00</time>
      </trkpt>
      <trkpt lat="44.31888" lon="0.9413">
        <ele>261</ele>
        <time>2020-09-01T11:06:08 02:00</time>
      </trkpt>
      <trkpt lat="44.31909" lon="0.94144">
        <ele>260</ele>
        <time>2020-09-01T11:06:08 02:00</time>
      </trkpt>
      <trkpt lat="44.31928" lon="0.94159">
        <ele>257</ele>
        <time>2020-09-01T11:06:08 02:00</time>
      </trkpt>
      <trkpt lat="44.31948" lon="0.94176">
        <ele>255</ele>
        <time>2020-09-01T11:06:08 02:00</time>
      </trkpt>
      <trkpt lat="44.31968" lon="0.94192">
        <ele>260</ele>
        <time>2020-09-01T11:08:16 02:00</time>
      </trkpt>
      <trkpt lat="44.31986" lon="0.94212">
        <ele>255</ele>
        <time>2020-09-01T11:08:16 02:00</time>
      </trkpt>
      <trkpt lat="44.32006" lon="0.94227">
        <ele>251</ele>
        <time>2020-09-01T11:08:16 02:00</time>
      </trkpt>
      <trkpt lat="44.32025" lon="0.94244">
        <ele>249</ele>
        <time>2020-09-01T11:08:16 02:00</time>
      </trkpt>
      <trkpt lat="44.32047" lon="0.94252">
        <ele>246</ele>
        <time>2020-09-01T11:08:16 02:00</time>
      </trkpt>
      <trkpt lat="44.32062" lon="0.94278">
        <ele>238</ele>
        <time>2020-09-01T11:08:16 02:00</time>
      </trkpt>
      <trkpt lat="44.32083" lon="0.94292">
        <ele>233</ele>
        <time>2020-09-01T11:10:24 02:00</time>
      </trkpt>
      <trkpt lat="44.32102" lon="0.94311">
        <ele>235</ele>
        <time>2020-09-01T11:10:24 02:00</time>
      </trkpt>
      <trkpt lat="44.3212" lon="0.94332">
        <ele>241</ele>
        <time>2020-09-01T11:10:24 02:00</time>
      </trkpt>
      <trkpt lat="44.3213" lon="0.94361">
        <ele>241</ele>
        <time>2020-09-01T11:10:24 02:00</time>
      </trkpt>
      <trkpt lat="44.32137" lon="0.94392">
        <ele>242</ele>
        <time>2020-09-01T11:10:24 02:00</time>
      </trkpt>
      <trkpt lat="44.32153" lon="0.94414">
        <ele>250</ele>
        <time>2020-09-01T11:12:32 02:00</time>
      </trkpt>
      <trkpt lat="44.32168" lon="0.94438">
        <ele>248</ele>
        <time>2020-09-01T11:12:32 02:00</time>
      </trkpt>
      <trkpt lat="44.32176" lon="0.94468">
        <ele>244</ele>
        <time>2020-09-01T11:12:32 02:00</time>
      </trkpt>
      <trkpt lat="44.32193" lon="0.9449">
        <ele>246</ele>
        <time>2020-09-01T11:12:32 02:00</time>
      </trkpt>
      <trkpt lat="44.32212" lon="0.9451">
        <ele>258</ele>
        <time>2020-09-01T11:12:32 02:00</time>
      </trkpt>
      <trkpt lat="44.32202" lon="0.94538">
        <ele>260</ele>
        <time>2020-09-01T11:14:40 02:00</time>
      </trkpt>
      <trkpt lat="44.32195" lon="0.94568">
        <ele>259</ele>
        <time>2020-09-01T11:14:40 02:00</time>
      </trkpt>
      <trkpt lat="44.3221" lon="0.94545">
        <ele>260</ele>
        <time>2020-09-01T11:14:40 02:00</time>
      </trkpt>
      <trkpt lat="44.32233" lon="0.9454">
        <ele>261</ele>
        <time>2020-09-01T11:14:40 02:00</time>
      </trkpt>
      <trkpt lat="44.3225" lon="0.9456">
        <ele>259</ele>
        <time>2020-09-01T11:14:40 02:00</time>
      </trkpt>
      <trkpt lat="44.32269" lon="0.94579">
        <ele>257</ele>
        <time>2020-09-01T11:16:48 02:00</time>
      </trkpt>
      <trkpt lat="44.32291" lon="0.94569">
        <ele>259</ele>
        <time>2020-09-01T11:16:48 02:00</time>
      </trkpt>
      <trkpt lat="44.32306" lon="0.94544">
        <ele>255</ele>
        <time>2020-09-01T11:16:48 02:00</time>
      </trkpt>
      <trkpt lat="44.32321" lon="0.94518">
        <ele>255</ele>
        <time>2020-09-01T11:16:48 02:00</time>
      </trkpt>
      <trkpt lat="44.32327" lon="0.94487">
        <ele>255</ele>
        <time>2020-09-01T11:16:48 02:00</time>
      </trkpt>
    </trkseg>
  </trk>
</gpx>